This is the latest recevied weather packets stored in our database for station/object IU1INZ-13. If no packets are shown the sender has not sent any weather packets the latest 10 day(s).
| Time | Temp. | Humidity | Pressure | Rain* | Wind** | Luminosity | Snow |
|---|---|---|---|---|---|---|---|
| 1777589134 | 12.22° C | 77% | 1025.2 hPa | 0 mm | - | - | - |
| 1777588246 | 12.22° C | 76% | 1025.2 hPa | 0 mm | - | - | - |
| 1777587361 | 12.22° C | 76% | 1025.2 hPa | 0 mm | - | - | - |
| 1777586440 | 12.78° C | 75% | 1025.2 hPa | 0 mm | - | - | - |
| 1777585547 | 13.33° C | 74% | 1025.2 hPa | 0 mm | - | - | - |
| 1777584632 | 13.89° C | 73% | 1025.1 hPa | 0 mm | - | - | - |
| 1777583732 | 13.89° C | 71% | 1025.1 hPa | 0 mm | - | - | - |
| 1777582845 | 14.44° C | 70% | 1025 hPa | 0 mm | - | - | - |
| 1777581930 | 14.44° C | 69% | 1025 hPa | 0 mm | - | - | - |
| 1777581039 | 14.44° C | 68% | 1025 hPa | 0 mm | - | - | - |
| 1777580139 | 14.44° C | 69% | 1024.9 hPa | 0 mm | - | - | - |
| 1777579231 | 14.44° C | 69% | 1024.7 hPa | 0 mm | - | - | - |
| 1777578344 | 14.44° C | 69% | 1024.4 hPa | 0 mm | - | - | - |
| 1777577435 | 15° C | 66% | 1024.2 hPa | 0 mm | - | - | - |
| 1777576536 | 15° C | 65% | 1024.1 hPa | 0 mm | - | - | - |
| 1777575642 | 15.56° C | 64% | 1024.1 hPa | 0 mm | - | - | - |
| 1777574739 | 15.56° C | 64% | 1023.9 hPa | 0 mm | - | - | - |
| 1777573839 | 15.56° C | 64% | 1023.7 hPa | 0 mm | - | - | - |
| 1777572935 | 16.11° C | 62% | 1023.7 hPa | 0 mm | - | - | - |
| 1777572040 | 16.11° C | 62% | 1023.6 hPa | 0 mm | - | - | - |
| 1777571135 | 16.11° C | 60% | 1023.5 hPa | 0 mm | - | - | - |
| 1777570235 | 16.67° C | 59% | 1023.2 hPa | 0 mm | - | - | - |
| 1777569333 | 17.22° C | 56% | 1023.2 hPa | 0 mm | - | - | - |
| 1777568433 | 17.78° C | 48% | 1023.2 hPa | 0 mm | - | - | - |
| 1777567532 | 17.78° C | 49% | 1023.2 hPa | 0 mm | - | - | - |
* Rain latest hour (hover to see other rain measurements)
** Current wind speed in m/s (hover to see current wind gust speed)